Regional Weather Roundup
Issued by NWS

Home | Current Version | Previous Version | Text Only | Print | Product List | Glossary Off
Versions: 1 2 3 4 5 6 7 8 9 10 11 12 13 14 15 16 17 18 19 20 21 22 23 24 25 26 27 28 29 30 31 32 33 34 35 36 37 38 39 40 41 42 43 44 45 46 47 48 49 50

153
ASUS44 KJAN 291510
RWRMS

MISSISSIPPI HOURLY WEATHER ROUNDUP
NATIONAL WEATHER SERVICE JACKSON MS
1000 AM CDT MON SEP 29 2014

NOTE: "FAIR: INDICATES FEW OR NO CLOUDS BELOW 12,000 FEET WITH NO
SIGNIFICANT WEATHER AND/OR OBSTRUCTIONS TO VISIBILITY.

MSZ001>002-007>008-010>013-018>021-025>028-034>036-291600-
NORTHWEST MISSISSIPPI

CITY           SKY/WX    TMP DP  RH WIND       PRES   REMARKS
CLARKSDALE     FAIR      77  64  65 N8        30.04S
CLEVELAND      FAIR      78  69  73 NE3       30.01S
GREENWOOD      SUNNY     80  69  69 E3        30.00S
GREENVILLE     SUNNY     80  67  64 NE7       30.00S
GRENADA        FAIR      77  66  69 CALM      30.02S
OLIVE BRANCH   SUNNY     73  68  83 NE6       30.05S
OXFORD         FAIR      73  66  78 CALM      30.05S
TUNICA         SUNNY     77  63  61 N6        30.05S
$$

MSZ003>006-009-014>017-022>024-029>033-037>039-291600-
NORTHEAST MISSISSIPPI

CITY           SKY/WX    TMP DP  RH WIND       PRES   REMARKS
COLUMBUS AFB   PTSUNNY   77  67  71 VRB1      30.01S
CORINTH        FAIR      75  66  73 CALM      30.04S
GOLDN TRIANGLE PTSUNNY   77  66  69 NE5       30.01R
STARKVILLE     FAIR      77  68  73 NE5       30.01S
TUPELO         SUNNY     76  67  73 NE3       30.02F
$$

MSZ040-058-291600-
CENTRAL MISSISSIPPI

CITY           SKY/WX    TMP DP  RH WIND       PRES   REMARKS
JACKSON INTL   MOSUNNY   79  69  71 NE7       29.98S
JACKSON HAWKNS NOT AVBL
MERIDIAN KEY   PTSUNNY   76  69  79 E5        29.98F
MERIDIAN NAS   PTSUNNY   77  68  73 E3        29.99S
RAYMOND        FAIR      79  73  83 CALM      29.98S
VICKSBURG        N/A    N/A N/A N/A MISG      29.98S
$$

MSZ059>079-291600-
SOUTH MISSISSIPPI

CITY           SKY/WX    TMP DP  RH WIND       PRES   REMARKS
BROOKHAVEN     CLOUDY    73  72  94 NE6       29.99S
COLUMBIA       CLOUDY    73  72  94 NE5       29.96R
HATTIESBURG      N/A     74  71  91 NE5       29.97R
MCCOMB           N/A    N/A N/A N/A MISG      29.97R
NATCHEZ        CLOUDY    73  72  94 N3        29.99R
PINE BELT      CLOUDY    73  70  88 NE8       29.98S
$$

MSZ080>082-291600-
COASTAL MISSISSIPPI

CITY           SKY/WX    TMP DP  RH WIND       PRES   REMARKS
BAY ST LOUIS   CLOUDY    75  70  83 NE8       29.93R
BILOXI         CLOUDY    75  73  94 NE12      29.93R
PASCAGOULA     CLOUDY    76  72  87 N10       29.92S
GULFPORT       CLOUDY    76  72  87 NE8       29.92S
$$



USA.gov is the U.S. government's official web portal to all federal, state and local government web resources and services.